Location: Monteux
(44.0348°N, 4.9972°E)
Time: 12:56:16
(UTC+00:00)

H-2A R/B - Pass Details

Date: 30 November 2020
Orbit: 578 x 654 km, 98.5° (Epoch: 26 January)

Event Time Altitude Azimuth Distance (km) Brightness Sun altitude
Rises 17:35:51 0° 4° (N) 2,843 5.3 -16.2°
Reaches altitude 10° 17:38:09 10° 355° (N) 1,948 4.5 -16.6°
Maximum altitude 17:41:55 32° 292° (WNW) 1,048 3.7 -17.2°
Drops below altitude 10° 17:45:44 10° 229° (SW) 1,975 5.6 -17.9°
Sets 17:48:05 0° 219° (SW) 2,890 6.3 -18.3°
